WZZ383 LIRF-EPWA

Flight info

Callsign WZZ383
Flight time 1h 46m
Altitude 36000
Route OKUNO L5 ATRUP DCT XAMIT DCT KOPRY DCT ALAMU DCT ORTEB DCT KONZI DCT LOGDA
Aircraft A321/M-SDE1E2E3FGIJ1J4RWXY/LB1

Departure

Time 2026-05-07 08:32
Airport Rome–Fiumicino Leonardo da Vinci International Airport (LIRF)

Arrival

Time 2026-05-07 10:19
Airport Warsaw Chopin Airport (EPWA)
Time Latitude Longitude Altitude Speed Heading
2026-05-07 07:53 41.79669 12.25817 14 ft 0 kts 115°
2026-05-07 08:20 41.79670 12.25813 14 ft 3 kts 115°
2026-05-07 08:20 41.79680 12.25788 15 ft 3 kts 114°
2026-05-07 08:21 41.79684 12.25757 15 ft 4 kts 61°
2026-05-07 08:21 41.79672 12.25741 16 ft 1 kts 25°
2026-05-07 08:21 41.79690 12.25752 15 ft 4 kts 25°
2026-05-07 08:21 41.79714 12.25767 14 ft 4 kts 25°
2026-05-07 08:22 41.79739 12.25783 14 ft 4 kts 25°
2026-05-07 08:22 41.79763 12.25798 14 ft 4 kts 25°
2026-05-07 08:22 41.79777 12.25806 14 ft 0 kts 25°
2026-05-07 08:25 41.79778 12.25807 14 ft 1 kts 25°
2026-05-07 08:25 41.79786 12.25812 14 ft 2 kts 25°
2026-05-07 08:26 41.79827 12.25835 14 ft 4 kts 13°
2026-05-07 08:26 41.79856 12.25825 14 ft 5 kts 350°
2026-05-07 08:26 41.79891 12.25835 16 ft 6 kts 20°
2026-05-07 08:27 41.79939 12.25864 15 ft 10 kts 25°
2026-05-07 08:27 41.80024 12.25916 14 ft 17 kts 25°
2026-05-07 08:27 41.80139 12.25987 15 ft 19 kts 25°
2026-05-07 08:27 41.80261 12.26062 14 ft 19 kts 25°
2026-05-07 08:28 41.80377 12.26137 15 ft 18 kts 26°
2026-05-07 08:28 41.80463 12.26177 16 ft 7 kts
2026-05-07 08:28 41.80511 12.26197 16 ft 8 kts 43°
2026-05-07 08:28 41.80538 12.26274 16 ft 11 kts 70°
2026-05-07 08:29 41.80568 12.26385 16 ft 15 kts 70°
2026-05-07 08:29 41.80610 12.26534 17 ft 19 kts 70°
2026-05-07 08:29 41.80658 12.26708 15 ft 20 kts 69°
2026-05-07 08:29 41.80704 12.26877 14 ft 14 kts 70°
2026-05-07 08:30 41.80730 12.26971 13 ft 11 kts 70°
2026-05-07 08:30 41.80751 12.27026 13 ft 7 kts 49°
2026-05-07 08:30 41.80798 12.27042 13 ft 8 kts 354°
2026-05-07 08:30 41.80852 12.27020 13 ft 9 kts 340°
2026-05-07 08:31 41.80915 12.26989 13 ft 10 kts 340°
2026-05-07 08:31 41.80952 12.26960 13 ft 6 kts 306°
2026-05-07 08:31 41.80948 12.26891 14 ft 11 kts 249°
2026-05-07 08:31 41.80863 12.26582 16 ft 70 kts 250°
2026-05-07 08:32 41.80613 12.25679 18 ft 134 kts 250°
2026-05-07 08:32 41.80231 12.24290 65 ft 177 kts 250°
2026-05-07 08:32 41.79809 12.22763 748 ft 173 kts 249°
2026-05-07 08:32 41.79353 12.21275 1452 ft 173 kts 238°
2026-05-07 08:33 41.78526 12.20100 2009 ft 177 kts 218°
2026-05-07 08:33 41.77577 12.19034 2526 ft 179 kts 219°
2026-05-07 08:33 41.76615 12.17978 3119 ft 179 kts 218°
2026-05-07 08:33 41.75633 12.16920 3477 ft 191 kts 219°
2026-05-07 08:34 41.74514 12.15812 3678 ft 211 kts 215°
2026-05-07 08:34 41.73231 12.14628 3904 ft 232 kts 214°
2026-05-07 08:34 41.71804 12.13352 4119 ft 258 kts 214°
2026-05-07 08:34 41.70297 12.11989 4777 ft 264 kts 214°
2026-05-07 08:35 41.68780 12.10593 5557 ft 265 kts 215°
2026-05-07 08:35 41.67256 12.09177 6316 ft 268 kts 215°
2026-05-07 08:35 41.65720 12.07751 7022 ft 270 kts 216°
2026-05-07 08:35 41.64188 12.06334 7741 ft 272 kts 216°
2026-05-07 08:36 41.62602 12.04872 8484 ft 274 kts 217°
2026-05-07 08:36 41.60972 12.03601 9224 ft 279 kts 201°
2026-05-07 08:36 41.59030 12.03342 9934 ft 288 kts 174°
2026-05-07 08:36 41.57144 12.04329 10574 ft 299 kts 147°
2026-05-07 08:37 41.55754 12.06434 11185 ft 309 kts 117°
2026-05-07 08:37 41.55253 12.09220 11825 ft 315 kts 89°
2026-05-07 08:37 41.55461 12.12220 12047 ft 336 kts 83°
2026-05-07 08:37 41.55771 12.15410 12194 ft 357 kts 83°
2026-05-07 08:38 41.56118 12.18767 12493 ft 371 kts 83°
2026-05-07 08:38 41.56474 12.22201 13049 ft 376 kts 83°
2026-05-07 08:38 41.56906 12.25665 13667 ft 380 kts 76°
2026-05-07 08:38 41.57808 12.28997 14225 ft 385 kts 64°
2026-05-07 08:39 41.59221 12.32045 14758 ft 388 kts 51°
2026-05-07 08:39 41.61084 12.34666 15287 ft 392 kts 41°
2026-05-07 08:39 41.63117 12.37118 15818 ft 396 kts 41°
2026-05-07 08:39 41.65164 12.39611 16383 ft 400 kts 41°
2026-05-07 08:40 41.67219 12.42158 16866 ft 405 kts 42°
2026-05-07 08:40 41.69284 12.44746 17379 ft 410 kts 42°
2026-05-07 08:40 41.71374 12.47375 17899 ft 414 kts 42°
2026-05-07 08:40 41.73483 12.50028 18419 ft 418 kts 43°
2026-05-07 08:41 41.75608 12.52701 18903 ft 421 kts 42°
2026-05-07 08:41 41.77750 12.55389 19378 ft 424 kts 42°
2026-05-07 08:41 41.79921 12.58097 19851 ft 427 kts 40°
2026-05-07 08:41 41.82290 12.60523 20313 ft 430 kts 33°
2026-05-07 08:42 41.84750 12.62825 20778 ft 433 kts 33°
2026-05-07 08:42 41.87234 12.65148 21256 ft 437 kts 33°
2026-05-07 08:42 41.89734 12.67491 21743 ft 440 kts 33°
2026-05-07 08:42 41.92254 12.69857 22205 ft 444 kts 34°
2026-05-07 08:43 41.94791 12.72245 22633 ft 447 kts 34°
2026-05-07 08:43 41.97347 12.74660 23060 ft 451 kts 34°
2026-05-07 08:43 41.99921 12.77094 23479 ft 454 kts 34°
2026-05-07 08:43 42.02389 12.79763 23863 ft 457 kts 43°
2026-05-07 08:44 42.04514 12.82949 24240 ft 460 kts 53°
2026-05-07 08:44 42.06245 12.86571 24589 ft 461 kts 62°
2026-05-07 08:44 42.07821 12.90339 24934 ft 464 kts 62°
2026-05-07 08:44 42.09411 12.94130 25296 ft 466 kts 61°
2026-05-07 08:45 42.11008 12.97940 25622 ft 469 kts 62°
2026-05-07 08:45 42.12579 13.01797 25968 ft 471 kts 63°
2026-05-07 08:45 42.14113 13.05705 26315 ft 473 kts 63°
2026-05-07 08:45 42.15627 13.09653 26639 ft 475 kts 64°
2026-05-07 08:46 42.17142 13.13627 26965 ft 478 kts 63°
2026-05-07 08:46 42.18669 13.17614 27330 ft 479 kts 63°
2026-05-07 08:46 42.20211 13.21607 27689 ft 482 kts 63°
2026-05-07 08:46 42.21770 13.25623 27998 ft 484 kts 63°
2026-05-07 08:47 42.23340 13.29655 28333 ft 487 kts 63°
2026-05-07 08:47 42.24918 13.33704 28636 ft 489 kts 63°
2026-05-07 08:47 42.26505 13.37784 28891 ft 492 kts 63°
2026-05-07 08:47 42.28093 13.41884 29157 ft 494 kts 63°
2026-05-07 08:48 42.29686 13.46017 29413 ft 497 kts 63°
2026-05-07 08:48 42.31279 13.50157 29722 ft 498 kts 63°
2026-05-07 08:48 42.32879 13.54314 30082 ft 499 kts 63°
2026-05-07 08:48 42.34705 13.58316 30366 ft 501 kts 53°
2026-05-07 08:49 42.36937 13.61936 30677 ft 501 kts 45°
2026-05-07 08:49 42.39474 13.65143 31043 ft 499 kts 40°
2026-05-07 08:49 42.42054 13.68283 31431 ft 498 kts 41°
2026-05-07 08:49 42.44588 13.71383 31780 ft 498 kts 41°
2026-05-07 08:50 42.47149 13.74532 32157 ft 497 kts 41°
2026-05-07 08:50 42.49737 13.77723 32539 ft 495 kts 41°
2026-05-07 08:50 42.52248 13.80824 32889 ft 495 kts 41°
2026-05-07 08:50 42.54790 13.83965 33222 ft 494 kts 41°
2026-05-07 08:51 42.57327 13.87098 33583 ft 493 kts 41°
2026-05-07 08:51 42.59856 13.90220 33993 ft 491 kts 41°
2026-05-07 08:51 42.62380 13.93334 34297 ft 490 kts 41°
2026-05-07 08:51 42.64899 13.96443 34566 ft 490 kts 41°
2026-05-07 08:52 42.67418 13.99559 34828 ft 490 kts 41°
2026-05-07 08:52 42.69935 14.02682 35082 ft 490 kts 41°
2026-05-07 08:52 42.72448 14.05807 35336 ft 490 kts 41°
2026-05-07 08:52 42.74961 14.08933 35589 ft 490 kts 41°
2026-05-07 08:53 42.77472 14.12060 35841 ft 490 kts 41°
2026-05-07 08:53 42.79990 14.15201 35992 ft 492 kts 41°
2026-05-07 08:53 42.85030 14.21495 36026 ft 491 kts 41°
2026-05-07 08:54 42.90047 14.27762 36026 ft 488 kts 41°
2026-05-07 08:54 42.95049 14.34029 36025 ft 489 kts 41°
2026-05-07 08:55 43.00052 14.40323 36022 ft 489 kts 41°
2026-05-07 08:55 43.05056 14.46631 36027 ft 489 kts 41°
2026-05-07 08:56 43.10064 14.52946 36044 ft 490 kts 41°
2026-05-07 08:56 43.15072 14.59288 36041 ft 491 kts 41°
2026-05-07 08:57 43.20087 14.65644 36036 ft 491 kts 41°
2026-05-07 08:57 43.24248 14.70933 36034 ft 491 kts 41°
2026-05-07 08:58 43.29266 14.77304 36044 ft 491 kts 39°
2026-05-07 08:58 43.34940 14.82412 36036 ft 487 kts 24°
2026-05-07 08:59 43.40983 14.86617 36034 ft 487 kts 24°
2026-05-07 08:59 43.47028 14.90864 36020 ft 488 kts 24°
2026-05-07 09:00 43.50042 14.92992 35872 ft 486 kts 24°
2026-05-07 09:00 43.53050 14.95116 35690 ft 485 kts 24°
2026-05-07 09:00 43.56054 14.97235 35489 ft 484 kts 24°
2026-05-07 09:00 43.59049 14.99350 35289 ft 484 kts 24°
2026-05-07 09:01 43.62048 15.01466 35086 ft 484 kts 24°
2026-05-07 09:01 43.65052 15.03584 34987 ft 485 kts 24°
2026-05-07 09:01 43.71083 15.07843 35022 ft 488 kts 25°
2026-05-07 09:02 43.77126 15.12128 35026 ft 488 kts 25°
2026-05-07 09:02 43.83161 15.16424 35032 ft 488 kts 25°
2026-05-07 09:03 43.89196 15.20732 35044 ft 488 kts 25°
2026-05-07 09:03 43.95235 15.25049 35054 ft 488 kts 25°
2026-05-07 09:04 44.01273 15.29368 35060 ft 489 kts 25°
2026-05-07 09:04 44.07283 15.33677 35063 ft 490 kts 25°
2026-05-07 09:05 44.13330 15.38033 35047 ft 489 kts 25°
2026-05-07 09:05 44.19376 15.42391 35071 ft 489 kts 25°
2026-05-07 09:06 44.25421 15.46756 35091 ft 490 kts 25°
2026-05-07 09:06 44.28456 15.48950 35337 ft 491 kts 25°
2026-05-07 09:06 44.31483 15.51142 35647 ft 491 kts 25°
2026-05-07 09:07 44.34512 15.53343 35939 ft 491 kts 25°
2026-05-07 09:07 44.37542 15.55550 36219 ft 490 kts 25°
2026-05-07 09:07 44.40563 15.57749 36504 ft 490 kts 25°
2026-05-07 09:07 44.43585 15.59949 36791 ft 489 kts 25°
2026-05-07 09:08 44.46605 15.62149 37015 ft 489 kts 25°
2026-05-07 09:08 44.49623 15.64349 37050 ft 489 kts 25°
2026-05-07 09:08 44.55659 15.68764 37051 ft 490 kts 25°
2026-05-07 09:09 44.61696 15.73194 37046 ft 489 kts 25°
2026-05-07 09:09 44.67726 15.77623 37053 ft 490 kts 25°
2026-05-07 09:10 44.73768 15.82070 37043 ft 489 kts 25°
2026-05-07 09:10 44.79797 15.86519 37043 ft 490 kts 25°
2026-05-07 09:11 44.85831 15.90986 37062 ft 490 kts 25°
2026-05-07 09:11 44.91873 15.95463 37063 ft 491 kts 25°
2026-05-07 09:12 44.97882 15.99929 37048 ft 491 kts 25°
2026-05-07 09:12 45.03921 16.04438 37063 ft 491 kts 25°
2026-05-07 09:13 45.09968 16.08951 37046 ft 492 kts 25°
2026-05-07 09:13 45.16020 16.13480 37045 ft 493 kts 26°
2026-05-07 09:14 45.22121 16.18062 37049 ft 493 kts 26°
2026-05-07 09:14 45.28145 16.22595 37052 ft 493 kts 26°
2026-05-07 09:15 45.34206 16.27170 37053 ft 494 kts 26°
2026-05-07 09:15 45.40268 16.31757 37071 ft 494 kts 26°
2026-05-07 09:16 45.46335 16.36353 37064 ft 494 kts 26°
2026-05-07 09:16 45.52405 16.40961 37058 ft 494 kts 26°
2026-05-07 09:17 45.58466 16.45578 37054 ft 494 kts 26°
2026-05-07 09:17 45.64530 16.50200 37054 ft 494 kts 26°
2026-05-07 09:18 45.70596 16.54841 37057 ft 494 kts 26°
2026-05-07 09:18 45.76658 16.59502 37056 ft 495 kts 26°
2026-05-07 09:19 45.82716 16.64173 37053 ft 495 kts 26°
2026-05-07 09:19 45.88776 16.68865 37049 ft 495 kts 26°
2026-05-07 09:20 45.94840 16.73552 37059 ft 495 kts 26°
2026-05-07 09:20 46.00907 16.78240 37049 ft 496 kts 26°
2026-05-07 09:21 46.06969 16.82944 37046 ft 495 kts 26°
2026-05-07 09:21 46.12992 16.87638 37043 ft 496 kts 27°
2026-05-07 09:22 46.19049 16.92376 37033 ft 495 kts 27°
2026-05-07 09:22 46.25089 16.97131 37028 ft 495 kts 28°
2026-05-07 09:23 46.31020 17.02227 37031 ft 496 kts 31°
2026-05-07 09:23 46.36855 17.07560 37029 ft 496 kts 31°
2026-05-07 09:24 46.42694 17.12875 37002 ft 496 kts 30°
2026-05-07 09:24 46.48561 17.18114 37023 ft 495 kts 30°
2026-05-07 09:25 46.54438 17.23323 37025 ft 495 kts 30°
2026-05-07 09:25 46.60300 17.28553 37013 ft 495 kts 30°
2026-05-07 09:26 46.66155 17.33822 37016 ft 495 kts 30°
2026-05-07 09:26 46.72004 17.39106 37018 ft 494 kts 30°
2026-05-07 09:27 46.77851 17.44395 37011 ft 494 kts 31°
2026-05-07 09:28 46.86613 17.52341 37005 ft 494 kts 31°
2026-05-07 09:28 46.92455 17.57649 37015 ft 494 kts 31°
2026-05-07 09:29 46.98293 17.62969 37014 ft 494 kts 31°
2026-05-07 09:29 47.04122 17.68299 37009 ft 494 kts 31°
2026-05-07 09:30 47.09948 17.73634 37006 ft 494 kts 31°
2026-05-07 09:30 47.15768 17.78980 37010 ft 493 kts 31°
2026-05-07 09:31 47.21547 17.84306 37004 ft 493 kts 31°
2026-05-07 09:31 47.27357 17.89676 37007 ft 493 kts 31°
2026-05-07 09:32 47.33169 17.95062 37011 ft 493 kts 31°
2026-05-07 09:32 47.38969 18.00457 37005 ft 493 kts 31°
2026-05-07 09:33 47.44773 18.05861 37001 ft 493 kts 31°
2026-05-07 09:33 47.50579 18.11270 37005 ft 493 kts 31°
2026-05-07 09:34 47.56383 18.16691 37002 ft 493 kts 31°
2026-05-07 09:34 47.62183 18.22127 37012 ft 493 kts 31°
2026-05-07 09:35 47.67975 18.27583 37005 ft 493 kts 31°
2026-05-07 09:35 47.73760 18.33053 37003 ft 493 kts 31°
2026-05-07 09:36 47.79594 18.38414 36999 ft 493 kts 30°
2026-05-07 09:36 47.85482 18.43634 37001 ft 492 kts 30°
2026-05-07 09:37 47.91364 18.48862 36999 ft 492 kts 30°
2026-05-07 09:37 47.97227 18.54146 36997 ft 492 kts 30°
2026-05-07 09:38 48.03070 18.59467 36985 ft 491 kts 30°
2026-05-07 09:38 48.08906 18.64773 36995 ft 491 kts 30°
2026-05-07 09:39 48.14737 18.70076 37000 ft 490 kts 30°
2026-05-07 09:39 48.20520 18.75349 36986 ft 489 kts 30°
2026-05-07 09:40 48.26367 18.80696 36977 ft 489 kts 30°
2026-05-07 09:40 48.32128 18.85998 36974 ft 489 kts 30°
2026-05-07 09:41 48.37924 18.91346 36976 ft 489 kts 30°
2026-05-07 09:41 48.43722 18.96698 36989 ft 489 kts 31°
2026-05-07 09:42 48.49517 19.02059 36992 ft 489 kts 31°
2026-05-07 09:42 48.55306 19.07437 36983 ft 489 kts 31°
2026-05-07 09:43 48.61095 19.12823 36997 ft 489 kts 31°
2026-05-07 09:43 48.66882 19.18215 36991 ft 489 kts 31°
2026-05-07 09:44 48.72661 19.23629 36985 ft 489 kts 31°
2026-05-07 09:44 48.78434 19.29058 36981 ft 488 kts 31°
2026-05-07 09:45 48.84207 19.34490 36979 ft 488 kts 31°
2026-05-07 09:45 48.89981 19.39929 36973 ft 488 kts 31°
2026-05-07 09:46 48.95740 19.45383 36963 ft 488 kts 31°
2026-05-07 09:46 49.01505 19.50862 36982 ft 489 kts 31°
2026-05-07 09:47 49.07268 19.56348 36975 ft 488 kts 31°
2026-05-07 09:47 49.12060 19.60920 36969 ft 489 kts 31°
2026-05-07 09:48 49.17827 19.66433 36970 ft 489 kts 31°
2026-05-07 09:48 49.23588 19.71965 36963 ft 489 kts 31°
2026-05-07 09:49 49.29358 19.77505 36955 ft 489 kts 31°
2026-05-07 09:49 49.35128 19.83057 36951 ft 489 kts 31°
2026-05-07 09:50 49.40885 19.88628 36950 ft 490 kts 31°
2026-05-07 09:50 49.46643 19.94226 36946 ft 489 kts 31°
2026-05-07 09:51 49.52394 19.99833 36950 ft 489 kts 31°
2026-05-07 09:51 49.58146 20.05433 36957 ft 489 kts 31°
2026-05-07 09:52 49.63895 20.11048 36946 ft 489 kts 31°
2026-05-07 09:52 49.69636 20.16693 36939 ft 489 kts 32°
2026-05-07 09:53 49.75379 20.22352 36928 ft 489 kts 32°
2026-05-07 09:53 49.81121 20.28006 36944 ft 489 kts 32°
2026-05-07 09:54 49.86869 20.33671 36937 ft 490 kts 32°
2026-05-07 09:54 49.92565 20.39331 36931 ft 490 kts 32°
2026-05-07 09:55 49.98300 20.45048 36897 ft 490 kts 32°
2026-05-07 09:55 50.04034 20.50771 36928 ft 489 kts 32°
2026-05-07 09:56 50.10046 20.55630 36933 ft 486 kts 17°
2026-05-07 09:56 50.13320 20.57035 36726 ft 490 kts
2026-05-07 09:56 50.16703 20.57664 36461 ft 489 kts
2026-05-07 09:56 50.20089 20.58078 35884 ft 488 kts
2026-05-07 09:57 50.23474 20.58437 35288 ft 488 kts
2026-05-07 09:57 50.26858 20.58757 34676 ft 488 kts 360°
2026-05-07 09:57 50.30241 20.59065 34178 ft 486 kts 360°
2026-05-07 09:57 50.33611 20.59382 33619 ft 485 kts 360°
2026-05-07 09:58 50.36967 20.59716 33136 ft 481 kts
2026-05-07 09:58 50.40292 20.60061 32642 ft 477 kts
2026-05-07 09:58 50.43597 20.60413 32144 ft 474 kts
2026-05-07 09:58 50.46878 20.60761 31647 ft 472 kts 360°
2026-05-07 09:59 50.50151 20.61102 31152 ft 470 kts 360°
2026-05-07 09:59 50.53404 20.61442 30657 ft 467 kts 360°
2026-05-07 09:59 50.56642 20.61783 30150 ft 466 kts 359°
2026-05-07 09:59 50.59870 20.62122 29605 ft 463 kts 359°
2026-05-07 10:00 50.63069 20.62458 29124 ft 459 kts 360°
2026-05-07 10:00 50.66238 20.62790 28629 ft 455 kts 360°
2026-05-07 10:00 50.69387 20.63123 28169 ft 451 kts 359°
2026-05-07 10:00 50.72504 20.63452 27696 ft 447 kts 359°
2026-05-07 10:01 50.75591 20.63773 27246 ft 443 kts 359°
2026-05-07 10:01 50.78656 20.64092 26794 ft 439 kts 360°
2026-05-07 10:01 50.81694 20.64411 26359 ft 436 kts 360°
2026-05-07 10:01 50.84707 20.64729 25914 ft 433 kts 360°
2026-05-07 10:02 50.87703 20.65047 25486 ft 430 kts 360°
2026-05-07 10:02 50.90641 20.65360 25078 ft 428 kts 360°
2026-05-07 10:02 50.93648 20.65678 24613 ft 427 kts 359°
2026-05-07 10:02 50.96608 20.65989 24169 ft 426 kts 359°
2026-05-07 10:03 50.99558 20.66301 23720 ft 424 kts 359°
2026-05-07 10:03 51.02474 20.66610 22905 ft 431 kts 359°
2026-05-07 10:03 51.05512 20.66930 22404 ft 427 kts 360°
2026-05-07 10:03 51.08411 20.67244 22084 ft 421 kts 360°
2026-05-07 10:04 51.11317 20.67562 21664 ft 416 kts
2026-05-07 10:04 51.14196 20.67873 21218 ft 413 kts
2026-05-07 10:04 51.17086 20.68182 20771 ft 410 kts
2026-05-07 10:04 51.19884 20.68479 20331 ft 407 kts
2026-05-07 10:05 51.22698 20.68776 19897 ft 404 kts
2026-05-07 10:05 51.25523 20.69075 19467 ft 400 kts
2026-05-07 10:05 51.28241 20.69682 19031 ft 400 kts 12°
2026-05-07 10:05 51.30826 20.71242 18798 ft 393 kts 25°
2026-05-07 10:06 51.33241 20.73153 18573 ft 384 kts 25°
2026-05-07 10:06 51.35622 20.75013 18110 ft 377 kts 25°
2026-05-07 10:06 51.37970 20.76836 17429 ft 373 kts 24°
2026-05-07 10:06 51.40290 20.78637 16742 ft 369 kts 25°
2026-05-07 10:07 51.42593 20.80428 16076 ft 366 kts 24°
2026-05-07 10:07 51.44870 20.82199 15431 ft 362 kts 24°
2026-05-07 10:07 51.47128 20.83961 14868 ft 359 kts 24°
2026-05-07 10:07 51.49367 20.85713 14339 ft 356 kts 24°
2026-05-07 10:08 51.51581 20.87451 13800 ft 353 kts 24°
2026-05-07 10:08 51.53779 20.89179 13219 ft 350 kts 24°
2026-05-07 10:08 51.55952 20.90893 12636 ft 346 kts 24°
2026-05-07 10:08 51.58102 20.92591 12082 ft 343 kts 25°
2026-05-07 10:09 51.60232 20.94273 11534 ft 339 kts 24°
2026-05-07 10:09 51.62340 20.95934 11011 ft 335 kts 24°
2026-05-07 10:09 51.64422 20.97577 10505 ft 332 kts 24°
2026-05-07 10:09 51.66476 20.99200 10103 ft 325 kts 24°
2026-05-07 10:10 51.68464 21.00773 9839 ft 315 kts 24°
2026-05-07 10:10 51.70421 21.02322 9499 ft 312 kts 24°
2026-05-07 10:10 51.72365 21.03864 9118 ft 310 kts 24°
2026-05-07 10:10 51.74294 21.05397 8755 ft 308 kts 25°
2026-05-07 10:11 51.76209 21.06917 8312 ft 305 kts 25°
2026-05-07 10:11 51.78103 21.08427 7827 ft 303 kts 25°
2026-05-07 10:11 51.79980 21.09926 7328 ft 300 kts 25°
2026-05-07 10:11 51.81847 21.11416 6830 ft 298 kts 25°
2026-05-07 10:12 51.83693 21.12892 6345 ft 295 kts 25°
2026-05-07 10:12 51.85521 21.14355 5936 ft 288 kts 25°
2026-05-07 10:12 51.87246 21.15737 5809 ft 272 kts 25°
2026-05-07 10:12 51.88926 21.17026 5602 ft 257 kts 18°
2026-05-07 10:13 51.90642 21.17617 5131 ft 250 kts 360°
2026-05-07 10:13 51.92330 21.17392 4644 ft 244 kts 343°
2026-05-07 10:13 51.93900 21.16439 4065 ft 240 kts 328°
2026-05-07 10:13 51.95363 21.15159 3580 ft 238 kts 328°
2026-05-07 10:14 51.96811 21.13902 3338 ft 232 kts 328°
2026-05-07 10:14 51.98201 21.12694 3217 ft 221 kts 328°
2026-05-07 10:14 51.99539 21.11533 3116 ft 215 kts 328°
2026-05-07 10:14 52.00849 21.10397 3029 ft 211 kts 327°
2026-05-07 10:15 52.02106 21.09310 3007 ft 199 kts 327°
2026-05-07 10:15 52.03302 21.08275 2974 ft 191 kts 327°
2026-05-07 10:15 52.04459 21.07267 2811 ft 186 kts 328°
2026-05-07 10:15 52.05589 21.06286 2582 ft 182 kts 328°
2026-05-07 10:16 52.06662 21.05355 2367 ft 169 kts 327°
2026-05-07 10:16 52.07683 21.04466 2125 ft 163 kts 328°
2026-05-07 10:16 52.08677 21.03608 1915 ft 162 kts 329°
2026-05-07 10:16 52.09651 21.02749 1711 ft 156 kts 330°
2026-05-07 10:17 52.10576 21.01935 1511 ft 148 kts 330°
2026-05-07 10:17 52.11483 21.01178 1326 ft 144 kts 330°
2026-05-07 10:17 52.12361 21.00396 1094 ft 144 kts 329°
2026-05-07 10:17 52.13239 20.99614 893 ft 143 kts 330°
2026-05-07 10:18 52.14113 20.98860 672 ft 141 kts 331°
2026-05-07 10:18 52.14982 20.98099 479 ft 142 kts 329°
2026-05-07 10:18 52.15856 20.97339 355 ft 141 kts 329°
2026-05-07 10:18 52.16588 20.96699 339 ft 96 kts 332°
2026-05-07 10:19 52.17022 20.96319 333 ft 46 kts 332°
2026-05-07 10:19 52.17246 20.96129 337 ft 20 kts 335°
2026-05-07 10:19 52.17341 20.96080 335 ft 14 kts 348°
2026-05-07 10:19 52.17433 20.96063 339 ft 11 kts 359°
2026-05-07 10:20 52.17518 20.96063 338 ft 12 kts 360°
2026-05-07 10:20 52.17573 20.96104 334 ft 9 kts 59°
2026-05-07 10:20 52.17582 20.96180 334 ft 7 kts 92°
2026-05-07 10:20 52.17557 20.96249 336 ft 8 kts 143°
2026-05-07 10:21 52.17503 20.96299 337 ft 10 kts 151°
2026-05-07 10:21 52.17450 20.96350 337 ft 8 kts 137°
2026-05-07 10:21 52.17448 20.96441 339 ft 9 kts 67°
2026-05-07 10:21 52.17469 20.96512 338 ft 7 kts 75°
2026-05-07 10:22 52.17447 20.96583 334 ft 8 kts 141°
2026-05-07 10:22 52.17392 20.96634 336 ft 10 kts 152°
2026-05-07 10:22 52.17328 20.96690 337 ft 11 kts 152°
2026-05-07 10:22 52.17262 20.96748 335 ft 9 kts 152°
2026-05-07 10:23 52.17200 20.96803 337 ft 11 kts 151°
2026-05-07 10:23 52.17134 20.96861 338 ft 7 kts 152°
2026-05-07 10:23 52.17109 20.96871 338 ft 4 kts 186°
2026-05-07 10:23 52.17090 20.96843 338 ft 2 kts 242°
2026-05-07 10:24 52.17087 20.96809 339 ft 4 kts 270°
2026-05-07 10:24 52.17088 20.96776 336 ft 2 kts 275°
2026-05-07 10:24 52.17089 20.96768 337 ft 0 kts 275°